Time,TemperatureF,DewpointF,PressureIn,WindDirection,WindDirectionDegrees,WindSpeedMPH,WindSpeedGustMPH,Humidity,HourlyPrecipIn,Conditions,Clouds,dailyrainin,SoftwareType,DateUTC
2013-07-12 00:00:00,70.7,69.5,29.95,North,0,0.0,0.0,95,0.00,,,0.65,fowsr,2013-07-12 04:00:00,
2013-07-12 00:05:00,70.5,69.3,29.95,North,0,0.0,0.0,95,0.00,,,0.65,fowsr,2013-07-12 04:05:00,
2013-07-12 00:10:00,70.5,69.3,29.95,NE,45,0.0,1.6,95,0.00,,,0.65,fowsr,2013-07-12 04:10:00,
2013-07-12 00:15:00,70.5,69.3,29.95,NW,315,0.0,0.0,95,0.00,,,0.65,fowsr,2013-07-12 04:15:00,
2013-07-12 00:20:00,70.5,69.3,29.95,North,0,0.0,0.0,95,0.00,,,0.65,fowsr,2013-07-12 04:20:00,
2013-07-12 00:25:00,70.7,69.5,29.95,NE,45,0.0,0.0,95,0.00,,,0.65,fowsr,2013-07-12 04:25:00,
2013-07-12 00:30:00,70.7,69.5,29.95,NE,45,0.0,0.7,95,0.00,,,0.65,fowsr,2013-07-12 04:30:00,
2013-07-12 00:35:00,70.7,69.8,29.95,North,0,0.0,0.0,96,0.00,,,0.65,fowsr,2013-07-12 04:35:00,
2013-07-12 00:40:00,70.9,69.9,29.95,North,0,0.0,0.0,96,0.00,,,0.65,fowsr,2013-07-12 04:40:00,
2013-07-12 00:45:00,70.9,69.9,29.95,North,0,0.0,0.0,96,0.00,,,0.65,fowsr,2013-07-12 04:45:00,
2013-07-12 00:50:00,70.9,69.9,29.94,North,0,0.0,0.0,96,0.00,,,0.65,fowsr,2013-07-12 04:50:00,
2013-07-12 00:55:00,70.9,69.9,29.95,North,0,0.0,0.0,96,0.00,,,0.65,fowsr,2013-07-12 04:55:00,
2013-07-12 01:00:00,70.9,69.9,29.95,North,0,0.0,0.0,96,0.00,,,0.65,fowsr,2013-07-12 05:00:00,
2013-07-12 01:05:00,70.9,69.9,29.95,North,0,0.0,0.0,96,0.00,,,0.65,fowsr,2013-07-12 05:05:00,
2013-07-12 01:10:00,71.1,70.1,29.95,North,0,0.0,0.0,96,0.00,,,0.65,fowsr,2013-07-12 05:10:00,
2013-07-12 01:15:00,71.1,70.1,29.94,North,0,0.0,0.0,96,0.00,,,0.65,fowsr,2013-07-12 05:15:00,
2013-07-12 01:20:00,70.9,69.9,29.95,North,0,0.0,0.0,96,0.00,,,0.65,fowsr,2013-07-12 05:20:00,
2013-07-12 01:25:00,70.9,69.9,29.94,North,0,0.0,0.0,96,0.00,,,0.65,fowsr,2013-07-12 05:25:00,
2013-07-12 01:30:00,70.7,69.8,29.95,North,0,0.0,0.0,96,0.00,,,0.65,fowsr,2013-07-12 05:30:00,
2013-07-12 01:35:00,70.7,69.8,29.94,North,0,0.0,0.0,96,0.00,,,0.65,fowsr,2013-07-12 05:35:00,
2013-07-12 01:40:00,70.5,69.6,29.94,North,0,0.0,0.0,96,0.00,,,0.65,fowsr,2013-07-12 05:40:00,
2013-07-12 01:45:00,70.5,69.6,29.95,North,0,0.0,0.0,96,0.00,,,0.65,fowsr,2013-07-12 05:45:00,
2013-07-12 01:50:00,70.3,69.4,29.95,North,0,0.0,0.0,96,0.00,,,0.65,fowsr,2013-07-12 05:50:00,
2013-07-12 01:55:00,70.3,69.4,29.95,North,0,0.0,0.0,96,0.00,,,0.65,fowsr,2013-07-12 05:55:00,
2013-07-12 02:00:00,70.3,69.6,29.95,North,0,0.0,0.0,97,0.00,,,0.65,fowsr,2013-07-12 06:00:00,
2013-07-12 02:05:00,70.3,69.6,29.95,North,0,0.0,0.0,97,0.00,,,0.65,fowsr,2013-07-12 06:05:00,
2013-07-12 02:10:00,70.3,69.6,29.95,North,0,0.0,0.0,97,0.00,,,0.65,fowsr,2013-07-12 06:10:00,
2013-07-12 02:15:00,70.3,69.6,29.95,North,0,0.0,0.0,97,0.00,,,0.65,fowsr,2013-07-12 06:15:00,
2013-07-12 02:20:00,70.3,69.6,29.95,North,0,0.0,0.0,97,0.00,,,0.65,fowsr,2013-07-12 06:20:00,
2013-07-12 02:25:00,70.2,69.5,29.95,North,0,0.0,0.0,97,0.00,,,0.65,fowsr,2013-07-12 06:25:00,
2013-07-12 02:30:00,70.2,69.5,29.95,North,0,0.0,0.7,97,0.00,,,0.65,fowsr,2013-07-12 06:30:00,
2013-07-12 02:35:00,70.2,69.5,29.95,North,0,0.0,0.0,97,0.00,,,0.65,fowsr,2013-07-12 06:35:00,
2013-07-12 02:40:00,70.0,69.3,29.95,North,0,0.0,0.0,97,0.00,,,0.65,fowsr,2013-07-12 06:40:00,
2013-07-12 02:45:00,70.0,69.3,29.95,North,0,0.0,0.0,97,0.00,,,0.65,fowsr,2013-07-12 06:45:00,
2013-07-12 02:50:00,70.0,69.3,29.95,North,0,0.0,0.7,97,0.00,,,0.65,fowsr,2013-07-12 06:50:00,
2013-07-12 02:55:00,70.0,69.3,29.96,NE,45,0.0,0.7,97,0.00,,,0.65,fowsr,2013-07-12 06:55:00,
2013-07-12 03:00:00,70.0,69.3,29.96,North,0,0.0,0.0,97,0.00,,,0.65,fowsr,2013-07-12 07:00:00,
2013-07-12 03:05:00,70.0,69.3,29.96,North,0,0.0,0.0,97,0.00,,,0.65,fowsr,2013-07-12 07:05:00,
2013-07-12 03:10:00,70.0,69.3,29.95,North,0,0.0,0.0,97,0.00,,,0.65,fowsr,2013-07-12 07:10:00,
2013-07-12 03:15:00,70.0,69.5,29.95,North,0,0.0,0.0,98,0.00,,,0.65,fowsr,2013-07-12 07:15:00,
2013-07-12 03:20:00,70.2,69.7,29.95,NE,45,0.0,0.0,98,0.00,,,0.65,fowsr,2013-07-12 07:20:00,
2013-07-12 03:25:00,70.2,69.7,29.95,North,0,0.0,0.0,98,0.00,,,0.65,fowsr,2013-07-12 07:25:00,
2013-07-12 03:30:00,70.3,69.9,29.95,North,0,0.0,0.0,98,0.00,,,0.65,fowsr,2013-07-12 07:30:00,
2013-07-12 03:35:00,70.3,69.9,29.95,North,0,0.0,0.0,98,0.00,,,0.65,fowsr,2013-07-12 07:35:00,
2013-07-12 03:40:00,70.2,69.7,29.95,North,0,0.0,0.0,98,0.00,,,0.65,fowsr,2013-07-12 07:40:00,
2013-07-12 03:45:00,70.2,69.7,29.95,North,0,0.0,0.0,98,0.00,,,0.65,fowsr,2013-07-12 07:45:00,
2013-07-12 03:50:00,70.2,69.7,29.95,North,0,0.0,0.0,98,0.00,,,0.65,fowsr,2013-07-12 07:50:00,
2013-07-12 03:55:00,70.2,69.7,29.94,North,0,0.0,0.0,98,0.00,,,0.65,fowsr,2013-07-12 07:55:00,
2013-07-12 04:00:00,70.2,69.7,29.95,North,0,0.0,0.0,98,0.00,,,0.65,fowsr,2013-07-12 08:00:00,
2013-07-12 04:05:00,70.2,69.7,29.94,North,0,0.0,0.0,98,0.00,,,0.65,fowsr,2013-07-12 08:05:00,
2013-07-12 04:10:00,70.2,69.7,29.94,North,0,0.0,0.0,98,0.00,,,0.65,fowsr,2013-07-12 08:10:00,
2013-07-12 04:20:00,70.0,69.5,29.94,North,0,0.0,0.0,98,0.00,,,0.65,fowsr,2013-07-12 08:20:00,
2013-07-12 04:25:00,70.0,69.5,29.94,SW,225,0.0,0.7,98,0.00,,,0.65,fowsr,2013-07-12 08:25:00,
2013-07-12 04:30:00,70.2,69.7,29.93,NW,315,0.0,0.0,98,0.00,,,0.65,fowsr,2013-07-12 08:30:00,
2013-07-12 04:35:00,70.2,69.7,29.94,NW,315,0.0,0.0,98,0.00,,,0.65,fowsr,2013-07-12 08:35:00,
2013-07-12 04:40:00,70.2,69.7,29.93,NW,315,0.0,0.0,98,0.00,,,0.65,fowsr,2013-07-12 08:40:00,
2013-07-12 04:45:00,70.2,69.7,29.93,NW,315,0.0,0.0,98,0.00,,,0.65,fowsr,2013-07-12 08:45:00,
2013-07-12 04:50:00,70.2,69.7,29.94,NW,315,0.0,0.0,98,0.00,,,0.65,fowsr,2013-07-12 08:50:00,
2013-07-12 04:55:00,70.2,69.7,29.94,NW,315,0.0,0.0,98,0.00,,,0.65,fowsr,2013-07-12 08:55:00,
2013-07-12 05:00:00,70.2,69.7,29.93,West,270,0.0,0.0,98,0.00,,,0.65,fowsr,2013-07-12 09:00:00,
2013-07-12 05:05:00,70.3,69.9,29.94,West,270,0.0,0.0,98,0.00,,,0.65,fowsr,2013-07-12 09:05:00,
2013-07-12 05:10:00,70.2,69.7,29.94,East,90,0.0,0.0,98,0.00,,,0.65,fowsr,2013-07-12 09:10:00,
2013-07-12 05:15:00,70.2,69.7,29.95,East,90,0.0,0.0,98,0.00,,,0.65,fowsr,2013-07-12 09:15:00,
2013-07-12 05:20:00,70.2,69.7,29.94,East,90,0.0,0.0,98,0.00,,,0.65,fowsr,2013-07-12 09:20:00,
2013-07-12 05:25:00,70.3,69.9,29.95,SW,225,0.0,1.6,98,0.00,,,0.65,fowsr,2013-07-12 09:25:00,
2013-07-12 05:30:00,70.5,70.1,29.95,NW,315,0.0,0.0,98,0.00,,,0.65,fowsr,2013-07-12 09:30:00,
2013-07-12 05:35:00,70.5,70.1,29.95,East,90,0.0,0.0,98,0.00,,,0.65,fowsr,2013-07-12 09:35:00,
2013-07-12 05:40:00,70.5,70.1,29.95,East,90,0.0,0.0,98,0.00,,,0.65,fowsr,2013-07-12 09:40:00,
2013-07-12 05:45:00,70.7,70.2,29.96,NW,315,0.0,0.7,98,0.00,,,0.65,fowsr,2013-07-12 09:45:00,
2013-07-12 05:50:00,70.9,70.4,29.96,SE,135,0.0,0.0,98,0.00,,,0.65,fowsr,2013-07-12 09:50:00,
2013-07-12 05:55:00,71.1,70.6,29.95,West,270,0.0,0.0,98,0.00,,,0.65,fowsr,2013-07-12 09:55:00,
2013-07-12 06:00:00,71.1,70.6,29.95,South,180,0.0,0.7,98,0.00,,,0.65,fowsr,2013-07-12 10:00:00,
2013-07-12 06:05:00,71.1,70.6,29.95,West,270,0.0,0.0,98,0.00,,,0.65,fowsr,2013-07-12 10:05:00,
2013-07-12 06:10:00,71.2,70.8,29.96,SW,225,0.7,1.6,98,0.00,,,0.65,fowsr,2013-07-12 10:10:00,
2013-07-12 06:15:00,71.2,70.8,29.95,West,270,0.7,1.6,98,0.00,,,0.65,fowsr,2013-07-12 10:15:00,
2013-07-12 06:20:00,71.2,70.8,29.95,SW,225,0.0,0.0,98,0.00,,,0.65,fowsr,2013-07-12 10:20:00,
2013-07-12 06:25:00,71.4,71.0,29.95,West,270,0.0,0.0,98,0.00,,,0.65,fowsr,2013-07-12 10:25:00,
2013-07-12 06:30:00,71.4,71.0,29.95,West,270,0.0,0.0,98,0.00,,,0.65,fowsr,2013-07-12 10:30:00,
2013-07-12 06:40:00,71.6,70.9,29.96,West,270,0.0,0.0,97,0.00,,,0.65,fowsr,2013-07-12 10:40:00,
2013-07-12 06:50:00,71.6,70.9,29.96,West,270,0.0,0.0,97,0.00,,,0.65,fowsr,2013-07-12 10:50:00,
2013-07-12 06:55:00,71.8,71.1,29.96,West,270,0.0,0.0,97,0.00,,,0.65,fowsr,2013-07-12 10:55:00,
2013-07-12 07:00:00,71.8,71.1,29.96,West,270,0.0,0.7,97,0.00,,,0.65,fowsr,2013-07-12 11:00:00,
2013-07-12 07:05:00,72.0,71.3,29.96,SW,225,0.0,1.6,97,0.00,,,0.65,fowsr,2013-07-12 11:05:00,
2013-07-12 07:10:00,72.1,71.4,29.96,West,270,0.0,0.7,97,0.00,,,0.65,fowsr,2013-07-12 11:10:00,
2013-07-12 07:15:00,72.1,71.4,29.96,NW,315,0.0,0.7,97,0.00,,,0.65,fowsr,2013-07-12 11:15:00,
2013-07-12 07:20:00,72.3,71.6,29.96,SW,225,0.0,1.6,97,0.00,,,0.65,fowsr,2013-07-12 11:20:00,
2013-07-12 07:25:00,72.3,71.6,29.96,NW,315,0.0,0.0,97,0.00,,,0.65,fowsr,2013-07-12 11:25:00,
2013-07-12 07:30:00,72.5,71.8,29.97,West,270,0.0,0.7,97,0.00,,,0.65,fowsr,2013-07-12 11:30:00,
2013-07-12 07:35:00,72.5,71.8,29.97,West,270,0.0,0.7,97,0.00,,,0.65,fowsr,2013-07-12 11:35:00,
2013-07-12 07:40:00,72.5,71.8,29.97,West,270,0.0,1.6,97,0.00,,,0.65,fowsr,2013-07-12 11:40:00,
2013-07-12 07:45:00,72.7,72.0,29.97,SSW,202,0.0,1.6,97,0.00,,,0.65,fowsr,2013-07-12 11:45:00,
2013-07-12 07:50:00,72.7,72.0,29.97,North,0,0.0,1.6,97,0.00,,,0.65,fowsr,2013-07-12 11:50:00,
2013-07-12 07:55:00,72.7,72.0,29.97,NW,315,0.0,0.7,97,0.00,,,0.65,fowsr,2013-07-12 11:55:00,
2013-07-12 08:00:00,72.7,72.0,29.98,SW,225,1.6,2.2,97,0.00,,,0.65,fowsr,2013-07-12 12:00:00,
2013-07-12 08:05:00,72.7,72.0,29.98,West,270,0.0,0.7,97,0.00,,,0.65,fowsr,2013-07-12 12:05:00,
2013-07-12 08:10:00,72.7,72.0,29.98,West,270,0.7,1.6,97,0.00,,,0.65,fowsr,2013-07-12 12:10:00,
2013-07-12 08:15:00,72.7,72.0,29.98,SW,225,0.7,2.2,97,0.01,,,0.66,fowsr,2013-07-12 12:15:00,
2013-07-12 08:20:00,72.7,72.0,29.98,West,270,0.0,0.0,97,0.01,,,0.66,fowsr,2013-07-12 12:20:00,
2013-07-12 08:25:00,72.7,72.0,29.98,West,270,0.0,0.7,97,0.02,,,0.67,fowsr,2013-07-12 12:25:00,
2013-07-12 08:30:00,72.5,71.8,29.98,West,270,0.0,0.7,97,0.04,,,0.69,fowsr,2013-07-12 12:30:00,
2013-07-12 08:35:00,72.5,71.8,29.98,NW,315,0.7,2.2,97,0.05,,,0.70,fowsr,2013-07-12 12:35:00,
2013-07-12 08:40:00,72.5,71.8,29.99,West,270,0.0,0.7,97,0.06,,,0.71,fowsr,2013-07-12 12:40:00,
2013-07-12 08:45:00,72.5,71.8,29.99,SW,225,0.7,1.6,97,0.06,,,0.71,fowsr,2013-07-12 12:45:00,
2013-07-12 08:50:00,72.5,71.8,29.99,West,270,0.7,1.6,97,0.07,,,0.70,fowsr,2013-07-12 12:50:00,
2013-07-12 08:55:00,72.3,71.6,29.99,WSW,247,0.0,1.6,97,0.07,,,0.65,fowsr,2013-07-12 12:55:00,
2013-07-12 09:00:00,72.5,71.8,29.99,West,270,0.7,2.2,97,0.08,,,0.63,fowsr,2013-07-12 13:00:00,
2013-07-12 09:05:00,72.5,71.8,29.99,West,270,0.7,2.2,97,0.08,,,0.57,fowsr,2013-07-12 13:05:00,
2013-07-12 09:10:00,72.3,71.6,29.99,SW,225,0.0,0.7,97,0.09,,,0.46,fowsr,2013-07-12 13:10:00,
2013-07-12 09:15:00,72.3,71.6,29.99,West,270,0.0,0.7,97,0.08,,,0.44,fowsr,2013-07-12 13:15:00,
2013-07-12 09:20:00,72.1,71.4,29.98,NE,45,0.7,2.2,97,0.09,,,0.41,fowsr,2013-07-12 13:20:00,
2013-07-12 09:25:00,72.1,71.4,29.98,NW,315,0.0,1.6,97,0.09,,,0.35,fowsr,2013-07-12 13:25:00,
2013-07-12 09:30:00,71.8,71.1,29.98,NW,315,0.0,1.6,97,0.08,,,0.33,fowsr,2013-07-12 13:30:00,
2013-07-12 09:35:00,71.2,70.8,29.98,SW,225,3.1,6.9,98,0.07,,,0.32,fowsr,2013-07-12 13:35:00,
2013-07-12 09:40:00,71.1,70.6,29.98,South,180,0.7,1.6,98,0.08,,,0.32,fowsr,2013-07-12 13:40:00,
2013-07-12 09:45:00,71.1,70.6,29.98,SW,225,2.2,3.8,98,0.07,,,0.31,fowsr,2013-07-12 13:45:00,
2013-07-12 09:50:00,71.1,70.6,29.99,West,270,0.7,1.6,98,0.06,,,0.28,fowsr,2013-07-12 13:50:00,
2013-07-12 09:55:00,71.1,70.6,29.99,North,0,0.7,1.6,98,0.06,,,0.24,fowsr,2013-07-12 13:55:00,
2013-07-12 10:00:00,71.1,70.6,29.99,West,270,0.0,0.7,98,0.06,,,0.24,fowsr,2013-07-12 14:00:00,
2013-07-12 10:05:00,71.1,70.6,29.99,West,270,0.7,1.6,98,0.06,,,0.22,fowsr,2013-07-12 14:05:00,
2013-07-12 10:10:00,71.2,70.8,29.99,SW,225,2.2,5.4,98,0.05,,,0.22,fowsr,2013-07-12 14:10:00,
2013-07-12 10:15:00,71.2,70.8,29.99,West,270,1.6,2.2,98,0.05,,,0.21,fowsr,2013-07-12 14:15:00,
2013-07-12 10:20:00,71.4,71.0,29.99,SW,225,0.7,1.6,98,0.05,,,0.22,fowsr,2013-07-12 14:20:00,
2013-07-12 10:25:00,71.6,70.9,29.99,West,270,1.6,3.1,97,0.05,,,0.22,fowsr,2013-07-12 14:25:00,
2013-07-12 10:30:00,71.6,70.9,29.99,SW,225,1.6,3.1,97,0.05,,,0.24,fowsr,2013-07-12 14:30:00,
2013-07-12 10:35:00,71.6,70.9,29.99,SW,225,1.6,3.8,97,0.05,,,0.24,fowsr,2013-07-12 14:35:00,
2013-07-12 10:40:00,71.4,71.0,29.99,NW,315,2.2,4.5,98,0.05,,,0.25,fowsr,2013-07-12 14:40:00,
2013-07-12 10:45:00,71.4,71.0,29.99,NW,315,0.7,2.2,98,0.05,,,0.25,fowsr,2013-07-12 14:45:00,
2013-07-12 10:50:00,71.2,70.8,30.00,SSW,202,0.7,1.6,98,0.05,,,0.25,fowsr,2013-07-12 14:50:00,
2013-07-12 10:55:00,71.4,71.0,30.00,NE,45,0.0,1.6,98,0.05,,,0.25,fowsr,2013-07-12 14:55:00,
2013-07-12 11:00:00,71.4,71.0,30.00,SW,225,0.0,0.7,98,0.06,,,0.27,fowsr,2013-07-12 15:00:00,
2013-07-12 11:05:00,71.4,71.0,30.00,West,270,0.7,1.6,98,0.06,,,0.27,fowsr,2013-07-12 15:05:00,
2013-07-12 11:10:00,71.4,71.0,30.00,SW,225,1.6,3.1,98,0.07,,,0.28,fowsr,2013-07-12 15:10:00,
2013-07-12 11:15:00,71.6,70.9,30.00,South,180,1.6,3.1,97,0.08,,,0.29,fowsr,2013-07-12 15:15:00,
2013-07-12 11:20:00,71.8,71.1,30.00,North,0,2.2,3.8,97,0.07,,,0.29,fowsr,2013-07-12 15:20:00,
2013-07-12 11:25:00,71.8,71.1,30.00,SW,225,0.7,2.2,97,0.07,,,0.29,fowsr,2013-07-12 15:25:00,
2013-07-12 11:35:00,71.6,70.9,30.00,SW,225,1.6,4.5,97,0.07,,,0.31,fowsr,2013-07-12 15:35:00,
2013-07-12 11:40:00,71.2,70.8,30.00,West,270,2.2,3.8,98,0.07,,,0.31,fowsr,2013-07-12 15:40:00,
2013-07-12 11:45:00,71.2,70.8,30.00,SW,225,2.2,3.8,98,0.07,,,0.32,fowsr,2013-07-12 15:45:00,
2013-07-12 11:55:00,71.1,70.6,30.00,SW,225,2.2,4.5,98,0.07,,,0.31,fowsr,2013-07-12 15:55:00,
2013-07-12 12:00:00,71.1,70.6,30.00,SW,225,4.5,7.6,98,0.06,,,0.31,fowsr,2013-07-12 16:00:00,
2013-07-12 12:05:00,71.2,70.8,30.00,West,270,0.0,1.6,98,0.06,,,0.31,fowsr,2013-07-12 16:05:00,
2013-07-12 12:10:00,71.1,70.6,30.00,West,270,3.1,6.0,98,0.05,,,0.31,fowsr,2013-07-12 16:10:00,
2013-07-12 12:15:00,71.1,70.6,30.00,SW,225,3.1,5.4,98,0.05,,,0.29,fowsr,2013-07-12 16:15:00,
2013-07-12 12:20:00,71.2,70.8,30.00,West,270,0.7,2.2,98,0.05,,,0.31,fowsr,2013-07-12 16:20:00,
2013-07-12 12:25:00,71.6,70.9,30.00,SW,225,3.8,5.4,97,0.05,,,0.31,fowsr,2013-07-12 16:25:00,
2013-07-12 12:30:00,71.6,70.9,30.00,West,270,5.4,9.8,97,0.04,,,0.29,fowsr,2013-07-12 16:30:00,
2013-07-12 12:35:00,71.8,71.1,30.00,NW,315,3.1,4.5,97,0.04,,,0.29,fowsr,2013-07-12 16:35:00,
2013-07-12 12:40:00,71.6,70.9,30.00,South,180,3.1,6.0,97,0.05,,,0.31,fowsr,2013-07-12 16:40:00,
2013-07-12 12:45:00,71.6,70.9,30.00,SW,225,3.8,6.0,97,0.05,,,0.31,fowsr,2013-07-12 16:45:00,
2013-07-12 12:50:00,71.8,71.1,30.00,South,180,2.2,3.8,97,0.04,,,0.29,fowsr,2013-07-12 16:50:00,
2013-07-12 12:55:00,71.8,71.1,30.00,West,270,2.2,5.4,97,0.05,,,0.31,fowsr,2013-07-12 16:55:00,
2013-07-12 13:00:00,71.8,71.1,29.99,NW,315,2.2,4.5,97,0.05,,,0.31,fowsr,2013-07-12 17:00:00,
2013-07-12 13:05:00,71.6,70.9,29.99,South,180,4.5,9.8,97,0.06,,,0.32,fowsr,2013-07-12 17:05:00,
2013-07-12 13:10:00,71.6,70.9,29.99,West,270,6.0,10.7,97,0.05,,,0.32,fowsr,2013-07-12 17:10:00,
2013-07-12 13:15:00,71.4,71.0,29.99,NW,315,2.2,3.8,98,0.06,,,0.33,fowsr,2013-07-12 17:15:00,
2013-07-12 13:20:00,71.4,71.0,29.99,SSW,202,3.1,6.0,98,0.06,,,0.34,fowsr,2013-07-12 17:20:00,
2013-07-12 13:25:00,71.4,71.0,29.99,SSW,202,3.8,7.6,98,0.07,,,0.35,fowsr,2013-07-12 17:25:00,
2013-07-12 13:30:00,71.2,70.8,30.00,SE,135,1.6,2.2,98,0.07,,,0.35,fowsr,2013-07-12 17:30:00,
2013-07-12 13:35:00,71.6,70.9,30.00,North,0,0.7,1.6,97,0.08,,,0.37,fowsr,2013-07-12 17:35:00,
2013-07-12 13:40:00,71.6,70.9,30.00,WNW,292,1.6,3.1,97,0.08,,,0.38,fowsr,2013-07-12 17:40:00,
2013-07-12 13:45:00,71.6,70.9,29.99,SW,225,3.8,7.6,97,0.12,,,0.41,fowsr,2013-07-12 17:45:00,
2013-07-12 13:55:00,71.4,71.0,30.00,SSW,202,3.1,3.8,98,0.27,,,0.57,fowsr,2013-07-12 17:55:00,
2013-07-12 14:08:00,71.2,70.8,29.99,South,180,4.5,7.6,98,0.39,,,0.71,fowsr,2013-07-12 18:08:00,
2013-07-12 14:15:00,71.2,70.8,29.99,West,270,2.2,4.5,98,0.51,,,0.84,fowsr,2013-07-12 18:15:00,
2013-07-12 14:20:00,71.2,70.8,29.99,SW,225,1.6,3.8,98,0.54,,,0.87,fowsr,2013-07-12 18:20:00,
2013-07-12 14:25:00,71.2,70.8,29.99,SW,225,0.7,2.2,98,0.60,,,0.94,fowsr,2013-07-12 18:25:00,
2013-07-12 14:30:00,71.2,70.8,29.99,NW,315,5.4,7.6,98,0.78,,,1.13,fowsr,2013-07-12 18:30:00,
2013-07-12 14:35:00,71.1,70.6,29.98,SW,225,3.1,4.5,98,0.85,,,1.21,fowsr,2013-07-12 18:35:00,
2013-07-12 14:45:00,71.1,70.6,29.98,NW,315,2.2,3.8,98,0.84,,,1.23,fowsr,2013-07-12 18:45:00,
2013-07-12 14:50:00,70.9,70.4,29.98,South,180,0.7,1.6,98,0.79,,,1.25,fowsr,2013-07-12 18:50:00,
2013-07-12 14:55:00,70.9,70.4,29.98,SW,225,4.5,12.1,98,0.74,,,1.25,fowsr,2013-07-12 18:55:00,
2013-07-12 15:03:00,71.1,70.6,29.98,WNW,292,3.1,6.0,98,0.67,,,1.25,fowsr,2013-07-12 19:03:00,
2013-07-12 15:10:00,71.1,70.6,29.98,North,0,3.1,5.4,98,0.52,,,1.28,fowsr,2013-07-12 19:10:00,
2013-07-12 15:19:00,71.1,70.6,29.97,NW,315,3.1,4.5,98,0.46,,,1.29,fowsr,2013-07-12 19:19:00,
2013-07-12 15:25:00,71.1,70.6,29.98,NW,315,3.8,5.4,98,0.45,,,1.34,fowsr,2013-07-12 19:25:00,
2013-07-12 15:35:00,71.1,70.6,29.97,SW,225,3.8,6.0,98,0.25,,,1.44,fowsr,2013-07-12 19:35:00,
2013-07-12 15:40:00,71.1,70.6,29.98,SW,225,3.1,6.9,98,0.29,,,1.51,fowsr,2013-07-12 19:40:00,
2013-07-12 15:46:00,71.1,70.6,29.97,South,180,5.4,7.6,98,0.44,,,1.66,fowsr,2013-07-12 19:46:00,
2013-07-12 15:55:00,71.2,70.8,29.97,SW,225,4.5,9.2,98,0.64,,,1.89,fowsr,2013-07-12 19:55:00,
2013-07-12 16:05:00,71.4,71.0,29.96,SW,225,3.1,7.6,98,0.83,,,2.09,fowsr,2013-07-12 20:05:00,
2013-07-12 16:10:00,71.6,70.9,29.97,SW,225,7.6,11.4,97,0.85,,,2.11,fowsr,2013-07-12 20:10:00,
2013-07-12 16:15:00,71.1,70.6,29.97,NW,315,1.6,3.1,98,0.84,,,2.11,fowsr,2013-07-12 20:15:00,
2013-07-12 16:25:00,70.7,70.2,29.97,SW,225,0.7,2.2,98,0.85,,,2.16,fowsr,2013-07-12 20:25:00,
2013-07-12 16:31:00,70.9,70.4,29.96,South,180,6.0,9.8,98,0.84,,,2.20,fowsr,2013-07-12 20:31:00,
2013-07-12 16:40:00,71.2,70.8,29.97,East,90,0.7,1.6,98,0.79,,,2.26,fowsr,2013-07-12 20:40:00,
2013-07-12 16:45:00,71.2,70.8,29.97,North,0,0.0,1.6,98,0.69,,,2.27,fowsr,2013-07-12 20:45:00,
2013-07-12 16:50:00,71.4,71.0,29.97,NE,45,2.2,4.5,98,0.63,,,2.36,fowsr,2013-07-12 20:50:00,
2013-07-12 16:55:00,71.6,70.9,29.97,SE,135,0.7,1.6,97,0.56,,,2.41,fowsr,2013-07-12 20:55:00,
2013-07-12 17:00:00,71.6,70.9,29.97,North,0,0.0,0.7,97,0.48,,,2.42,fowsr,2013-07-12 21:00:00,
2013-07-12 17:08:00,71.8,71.1,29.97,NE,45,0.7,2.2,97,0.37,,,2.42,fowsr,2013-07-12 21:08:00,
2013-07-12 17:15:00,72.0,71.3,29.97,NW,315,0.7,1.6,97,0.31,,,2.42,fowsr,2013-07-12 21:15:00,
2013-07-12 17:23:00,72.1,71.4,29.97,NW,315,0.0,1.6,97,0.31,,,2.42,fowsr,2013-07-12 21:23:00,
2013-07-12 17:30:00,72.9,72.1,29.97,North,0,0.0,0.7,97,0.24,,,2.42,fowsr,2013-07-12 21:30:00,
2013-07-12 17:35:00,73.0,72.3,29.97,NE,45,0.7,3.1,97,0.21,,,2.42,fowsr,2013-07-12 21:35:00,
2013-07-12 17:40:00,72.9,72.1,29.97,WSW,247,0.7,1.6,97,0.18,,,2.42,fowsr,2013-07-12 21:40:00,
2013-07-12 17:45:00,72.7,72.0,29.97,North,0,0.7,2.2,97,0.15,,,2.42,fowsr,2013-07-12 21:45:00,
2013-07-12 17:53:00,72.5,71.8,29.97,NW,315,0.7,2.2,97,0.11,,,2.42,fowsr,2013-07-12 21:53:00,
2013-07-12 18:00:00,72.5,71.8,29.97,NW,315,0.7,2.2,97,0.00,,,2.42,fowsr,2013-07-12 22:00:00,
2013-07-12 18:05:00,72.5,71.8,29.97,SW,225,0.7,1.6,97,0.00,,,2.42,fowsr,2013-07-12 22:05:00,
2013-07-12 18:10:00,72.3,71.6,29.97,NE,45,0.7,2.2,97,0.00,,,2.42,fowsr,2013-07-12 22:10:00,
2013-07-12 18:15:00,72.1,71.4,29.98,East,90,0.0,0.7,97,0.00,,,2.42,fowsr,2013-07-12 22:15:00,
2013-07-12 18:20:00,72.1,71.4,29.98,WSW,247,0.0,0.7,97,0.00,,,2.42,fowsr,2013-07-12 22:20:00,
2013-07-12 18:25:00,72.1,71.4,29.97,NW,315,0.7,1.6,97,0.00,,,2.42,fowsr,2013-07-12 22:25:00,
2013-07-12 18:30:00,72.3,71.6,29.98,North,0,0.7,2.2,97,0.00,,,2.42,fowsr,2013-07-12 22:30:00,
2013-07-12 18:35:00,72.1,71.4,29.97,NW,315,0.0,1.6,97,0.00,,,2.42,fowsr,2013-07-12 22:35:00,
2013-07-12 18:40:00,72.1,71.4,29.97,NE,45,0.0,0.7,97,0.00,,,2.42,fowsr,2013-07-12 22:40:00,
2013-07-12 18:45:00,72.1,71.4,29.97,North,0,0.0,0.7,97,0.00,,,2.42,fowsr,2013-07-12 22:45:00,
2013-07-12 18:50:00,72.1,71.4,29.97,NE,45,0.0,0.7,97,0.00,,,2.42,fowsr,2013-07-12 22:50:00,
2013-07-12 18:56:00,72.0,71.3,29.98,West,270,0.0,0.7,97,0.00,,,2.42,fowsr,2013-07-12 22:56:00,
2013-07-12 19:03:00,71.8,71.1,29.98,NW,315,0.0,1.6,97,0.00,,,2.42,fowsr,2013-07-12 23:03:00,
2013-07-12 19:10:00,71.8,71.1,29.98,North,0,1.6,2.2,97,0.00,,,2.42,fowsr,2013-07-12 23:10:00,
2013-07-12 19:15:00,71.8,71.1,29.98,North,0,0.0,0.7,97,0.00,,,2.42,fowsr,2013-07-12 23:15:00,
2013-07-12 19:20:00,71.8,71.1,29.99,NW,315,0.0,0.7,97,0.00,,,2.42,fowsr,2013-07-12 23:20:00,
2013-07-12 19:29:00,71.6,70.9,29.99,North,0,0.7,2.2,97,0.00,,,2.42,fowsr,2013-07-12 23:29:00,
2013-07-12 19:35:00,70.9,70.4,29.99,North,0,0.0,0.7,98,0.00,,,2.42,fowsr,2013-07-12 23:35:00,
2013-07-12 19:40:00,70.7,70.2,29.99,NW,315,1.6,4.5,98,0.00,,,2.42,fowsr,2013-07-12 23:40:00,
2013-07-12 19:45:00,70.5,70.1,29.99,WNW,292,0.0,1.6,98,0.00,,,2.42,fowsr,2013-07-12 23:45:00,
2013-07-12 19:50:00,70.3,69.9,29.99,North,0,0.0,0.7,98,0.00,,,2.42,fowsr,2013-07-12 23:50:00,
2013-07-12 19:55:00,70.3,69.9,29.99,NW,315,0.0,1.6,98,0.00,,,2.42,fowsr,2013-07-12 23:55:00,
2013-07-12 20:00:00,70.2,69.7,29.99,SW,225,0.0,1.6,98,0.00,,,2.42,fowsr,2013-07-13 00:00:00,
2013-07-12 20:05:00,70.2,69.7,30.00,North,0,0.7,2.2,98,0.00,,,2.42,fowsr,2013-07-13 00:05:00,
2013-07-12 20:10:00,70.2,69.7,30.00,NE,45,0.7,1.6,98,0.00,,,2.42,fowsr,2013-07-13 00:10:00,
2013-07-12 20:15:00,70.0,69.5,30.00,North,0,0.0,0.7,98,0.00,,,2.42,fowsr,2013-07-13 00:15:00,
2013-07-12 20:20:00,70.0,69.5,30.00,NW,315,0.0,0.7,98,0.00,,,2.42,fowsr,2013-07-13 00:20:00,
2013-07-12 20:25:00,69.8,69.3,30.00,SW,225,0.0,0.7,98,0.00,,,2.42,fowsr,2013-07-13 00:25:00,
2013-07-12 20:30:00,69.8,69.3,30.00,NE,45,0.0,0.7,98,0.00,,,2.42,fowsr,2013-07-13 00:30:00,
2013-07-12 20:35:00,69.6,69.4,30.00,NW,315,0.0,0.7,99,0.00,,,2.42,fowsr,2013-07-13 00:35:00,
2013-07-12 20:40:00,69.4,69.2,30.01,North,0,0.7,2.2,99,0.00,,,2.42,fowsr,2013-07-13 00:40:00,
2013-07-12 20:45:00,69.4,69.2,30.01,NW,315,0.0,0.7,99,0.00,,,2.42,fowsr,2013-07-13 00:45:00,
2013-07-12 20:58:00,69.1,68.8,30.01,East,90,0.0,0.7,99,0.00,,,2.42,fowsr,2013-07-13 00:58:00,
2013-07-12 21:05:00,69.1,68.8,30.02,SW,225,0.7,1.6,99,0.00,,,2.42,fowsr,2013-07-13 01:05:00,
2013-07-12 21:10:00,69.1,68.8,30.02,NW,315,0.7,1.6,99,0.00,,,2.42,fowsr,2013-07-13 01:10:00,
2013-07-12 21:15:00,69.1,68.8,30.02,NW,315,0.0,1.6,99,0.00,,,2.42,fowsr,2013-07-13 01:15:00,
2013-07-12 21:20:00,69.1,68.8,30.02,NW,315,1.6,3.1,99,0.00,,,2.42,fowsr,2013-07-13 01:20:00,
2013-07-12 21:25:00,68.9,68.7,30.02,North,0,0.0,0.0,99,0.00,,,2.42,fowsr,2013-07-13 01:25:00,
2013-07-12 21:30:00,68.9,68.7,30.02,West,270,0.0,0.0,99,0.00,,,2.42,fowsr,2013-07-13 01:30:00,
2013-07-12 21:38:00,68.9,68.7,30.03,NW,315,0.0,0.7,99,0.00,,,2.42,fowsr,2013-07-13 01:38:00,
2013-07-12 21:45:00,68.7,68.5,30.03,North,0,0.0,0.0,99,0.00,,,2.42,fowsr,2013-07-13 01:45:00,
2013-07-12 21:50:00,68.7,68.5,30.03,NW,315,0.0,0.7,99,0.00,,,2.42,fowsr,2013-07-13 01:50:00,
2013-07-12 21:55:00,68.7,68.5,30.04,North,0,0.0,0.0,99,0.00,,,2.42,fowsr,2013-07-13 01:55:00,
2013-07-12 22:00:00,68.7,68.5,30.03,North,0,0.0,0.7,99,0.00,,,2.42,fowsr,2013-07-13 02:00:00,
2013-07-12 22:05:00,68.7,68.5,30.04,North,0,0.0,0.0,99,0.00,,,2.42,fowsr,2013-07-13 02:05:00,
2013-07-12 22:10:00,68.7,68.5,30.05,NW,315,0.0,0.7,99,0.00,,,2.42,fowsr,2013-07-13 02:10:00,
2013-07-12 22:15:00,68.9,68.7,30.05,NW,315,0.0,0.7,99,0.00,,,2.42,fowsr,2013-07-13 02:15:00,
2013-07-12 22:20:00,68.9,68.7,30.05,North,0,0.0,0.0,99,0.00,,,2.42,fowsr,2013-07-13 02:20:00,
2013-07-12 22:25:00,68.7,68.5,30.05,North,0,0.0,0.0,99,0.00,,,2.42,fowsr,2013-07-13 02:25:00,
2013-07-12 22:30:00,68.7,68.5,30.05,NE,45,0.0,0.7,99,0.00,,,2.42,fowsr,2013-07-13 02:30:00,
2013-07-12 22:35:00,68.7,68.5,30.05,NW,315,0.0,0.7,99,0.00,,,2.42,fowsr,2013-07-13 02:35:00,
2013-07-12 22:40:00,68.7,68.5,30.05,NE,45,0.0,0.0,99,0.00,,,2.42,fowsr,2013-07-13 02:40:00,
2013-07-12 22:50:00,68.7,68.5,30.05,North,0,0.0,0.0,99,0.00,,,2.42,fowsr,2013-07-13 02:50:00,
2013-07-12 23:00:00,68.7,68.5,30.05,North,0,0.0,0.0,99,0.00,,,2.42,fowsr,2013-07-13 03:00:00,
2013-07-12 23:05:00,68.7,68.5,30.05,NW,315,0.0,0.7,99,0.00,,,2.42,fowsr,2013-07-13 03:05:00,
2013-07-12 23:10:00,68.7,68.5,30.05,NW,315,0.0,0.0,99,0.00,,,2.42,fowsr,2013-07-13 03:10:00,
2013-07-12 23:18:00,68.5,68.3,30.05,NW,315,0.0,0.0,99,0.00,,,2.42,fowsr,2013-07-13 03:18:00,
2013-07-12 23:25:00,68.7,68.5,30.05,NE,45,0.0,1.6,99,0.00,,,2.42,fowsr,2013-07-13 03:25:00,
2013-07-12 23:33:00,68.7,68.5,30.05,West,270,0.0,0.0,99,0.00,,,2.42,fowsr,2013-07-13 03:33:00,
2013-07-12 23:38:00,68.7,68.5,30.06,NW,315,0.0,0.0,99,0.00,,,2.42,fowsr,2013-07-13 03:38:00,
2013-07-12 23:45:00,68.7,68.5,30.06,NW,315,0.0,0.7,99,0.00,,,2.42,fowsr,2013-07-13 03:45:00,
2013-07-12 23:50:00,68.7,68.5,30.07,SW,225,0.0,0.0,99,0.00,,,2.42,fowsr,2013-07-13 03:50:00,
2013-07-12 23:55:00,68.5,68.3,30.07,North,0,0.0,0.0,99,0.00,,,2.42,fowsr,2013-07-13 03:55:00,